Location: Lake Zurich
(42.1970°N, 88.0930°W)
Time: 19:54:52
(UTC-05:00)

Daily predictions for brighter satellites

Satellite Brightness Start Highest point End
(mag) Time Altitude Azimuth Time Altitude Azimuth Time Altitude Azimuth
Cosmos 1937 Rocket 3.6 19:28:14 10° SSW 19:33:28 85° ESE 19:38:48 10° NNE
Cosmos 2123 Rocket 4.2 19:27:38 10° N 19:33:47 51° ENE 19:39:51 10° SSE
SL-27 R/B 2.5 19:32:35 10° NNW 19:36:09 66° ENE 19:39:45 10° SSE
RESURS DK-1 2.3 19:33:54 10° NNW 19:38:03 76° ENE 19:42:10 10° SSE
Cosmos 2344 3.7 19:33:17 10° SSW 19:40:55 76° ESE 19:49:26 10° NE
BREEZE-M DEB (TANK) 4.1 19:39:55 10° NW 19:41:44 17° N 19:43:27 10° NE
OE (NEXTSAT) 4.4 19:40:10 10° WSW 19:43:45 77° SSE 19:47:21 10° ENE
CZ-2D R/B 4.2 19:40:41 10° SE 19:44:03 29° ENE 19:47:26 10° N
CZ-3B DEB 3.2 19:32:33 10° SW 19:45:01 84° NW 19:50:31 10° NE
In-Cosmos 22 4.2 19:40:35 10° N 19:45:46 52° ENE 19:50:54 10° SSE
Cosmos 1805 3.9 19:44:40 10° SSE 19:48:10 33° E 19:51:42 10° NNE
Cosmos 1818 3.9 19:43:41 10° NNW 19:48:57 48° NE 19:54:10 10° SE
Cosmos 1844 Rocket 3.7 19:44:34 10° SW 19:50:03 51° WNW 19:55:33 10° NNE
Cosmos 1378 3.6 19:46:39 10° NNW 19:50:24 65° W 19:54:06 10° S
COSMOS 2487 4.0 19:48:10 10° NNE 19:50:51 20° ENE 19:53:16 11° ESE
ALOS 2.3 19:48:37 10° SSE 19:53:17 87° E 19:58:00 10° NNW
Resurs 1-3 3.8 19:51:29 10° SSE 19:55:42 49° ENE 19:59:57 10° N
Cosmos 1437 Rocket 3.9 19:52:55 10° SSW 19:56:50 50° WNW 20:00:49 10° N
Meteor 1-22 Rocket 4.4 19:51:32 10° S 19:57:23 89° W 20:03:28 10° N
Meteor 1-4 Rocket 3.1 19:56:23 10° SSE 19:59:30 32° E 20:02:38 10° NNE
Cosmos 1833 Rocket 3.4 19:55:48 10° N 20:00:58 36° ENE 20:05:39 12° ESE
FENGYUN 3A 3.8 19:57:25 10° SSE 20:02:50 83° WSW 20:08:15 10° NNW
Cosmos 1408 Rocket 4.5 20:00:02 10° NNE 20:04:00 30° ENE 20:07:46 11° SE
Cosmos 1470 4.1 20:01:24 10° SE 20:04:18 20° E 20:07:12 10° NE
Cosmos 2278 Rocket 2.3 20:01:31 10° SSW 20:07:12 85° WNW 20:12:56 10° NNE
SJ-6B 3.9 20:03:53 10° S 20:07:28 45° W 20:11:05 10° NNW
Cosmos 1544 3.1 20:04:20 10° S 20:07:54 57° E 20:11:31 10° NNE
Cosmos 1340 Rocket 4.2 20:07:45 10° NNE 20:10:50 21° ENE 20:12:10 18° E
Cosmos 372 Rocket 4.4 20:06:57 10° SSE 20:11:37 38° ESE 20:16:21 10° NE
CZ-4B DEB 3.9 20:12:04 20° E 20:13:00 23° ENE 20:15:33 10° NNE
Cosmos 1733 4.4 20:10:59 14° SE 20:13:17 23° E 20:16:23 10° NE
Cosmos 2098 Rocket 4.5 20:06:22 10° SSE 20:13:25 60° E 20:20:52 10° NNE
ATLAS 5 CENTAUR R/B 2.4 20:14:13 10° S 20:18:20 32° ESE 20:22:45 10° NE
ISS -2.4 20:16:05 10° S 20:18:25 20° SE 20:18:25 20° SE
USA 215 3.8 20:13:00 10° ENE 20:18:48 33° SE 20:24:32 10° S
Cosmos 158 Rocket 4.3 20:13:56 10° N 20:18:52 46° ENE 20:22:45 16° SE
Okean 3 Rocket 3.6 20:15:38 10° N 20:20:03 84° W 20:24:28 10° S
H-2A R/B 3.2 20:18:54 10° S 20:22:46 65° W 20:26:42 10° NNW
Cosmos 2297 3.7 20:17:31 10° S 20:23:07 60° ESE 20:28:45 10° NNE
Tiangong 1 3.3 20:22:15 10° WSW 20:24:12 16° SSW 20:25:54 11° S
Cosmos 1867 3.6 20:19:55 10° SSW 20:25:15 61° ESE 20:30:39 10° NE
Abrixas 2.4 20:23:07 10° WNW 20:25:57 67° SSW 20:26:58 34° SE
Spot 2 Rocket 3.8 20:23:07 10° S 20:28:12 72° WSW 20:33:20 10° NNW
Helios 1B rocket 2.4 20:28:32 10° NNE 20:32:38 58° E 20:36:41 10° S
Cosmos 1758 3.3 20:28:51 10° S 20:32:49 82° W 20:36:51 10° N
Cosmos 1076 Rocket 3.4 20:29:03 10° N 20:33:18 87° ENE 20:37:32 10° S
Cosmos 2082 Rocket 2.1 20:31:18 10° NNW 20:37:01 76° ENE 20:41:10 19° SSE
Lacrosse 5 3.0 20:33:19 10° WSW 20:38:09 44° NW 20:43:00 10° NE
USA 186 1.3 20:39:54 56° SW 20:40:06 60° W 20:42:19 10° NNW
Cosmos 1953 2.5 20:36:43 10° SSW 20:40:46 73° W 20:44:50 10° N
Lacrosse 4 Rocket 4.4 20:40:30 10° WNW 20:42:29 13° NW 20:44:29 10° NNW
SWAS 4.4 20:38:44 10° S 20:42:57 59° ESE 20:47:12 10° NNE
SPOT 5 4.4 20:45:02 21° ENE 20:45:29 21° ENE 20:49:23 10° NNE
GP-B 3.0 20:41:17 10° S 20:45:43 84° E 20:50:11 10° N
Envisat 3.0 20:42:59 22° SSE 20:46:16 64° ENE 20:51:19 10° N
Cosmos 1939 Rocket 3.1 20:45:32 37° SE 20:46:45 51° ENE 20:50:48 10° N
Helios 1A 3.0 20:43:23 14° S 20:46:55 80° WSW 20:51:07 10° NNW
CZ-4B DEB 4.5 20:47:00 29° SSE 20:48:43 89° WSW 20:52:19 10° NNW
Cosmos 1766 Rocket 3.5 20:44:36 10° N 20:49:07 88° W 20:52:36 17° S
Cosmos 1271 Rocket 2.7 20:45:31 10° S 20:49:29 66° E 20:53:29 10° NNE
Cosmos 2016 Rocket 4.2 20:47:02 16° SSE 20:51:40 45° E 20:57:29 10° NNE
ARGOS 4.5 20:51:33 21° ENE 20:51:44 21° ENE 20:55:41 10° NNE
Resurs 01 Rocket 3.3 20:47:45 10° SSW 20:51:45 34° W 20:55:49 10° NNW
USA 267 4.4 20:48:09 17° ENE 20:52:10 32° NNE 20:57:49 10° NW
H-2A R/B 4.0 20:52:51 14° NE 20:52:51 14° NE 20:55:05 10° NNE
Cosmos 1125 Rocket 3.9 20:50:39 10° SSW 20:55:47 64° WNW 21:01:00 10° NNE
Cosmos 1184 Rocket 4.3 20:53:06 10° N 20:55:05 27° NNE 20:55:05 27° NNE
Cosmos 1048 Rocket 4.3 20:53:43 10° NNW 20:58:48 65° WSW 21:02:27 19° S
Geosat 4.3 20:54:07 10° NNE 20:59:07 68° WNW 21:04:05 10° SW
Cosmos-2242 2.9 20:55:38 10° S 20:59:53 85° W 21:04:10 10° N
Cosmos 1725 Rocket 4.5 20:59:08 35° ESE 20:59:54 36° E 21:05:29 10° NNE
Lacrosse 5 rocket 1.3 20:58:27 10° NW 21:02:18 56° NE 21:02:25 55° NE
ERS-1 Rocket 3.1 21:03:22 45° ESE 21:04:16 51° ENE 21:09:10 10° N
Cosmos 1674 3.3 21:01:15 10° NNW 21:04:56 54° W 21:06:52 26° SSW
Cosmos 2100 Rocket 4.0 21:01:20 10° S 21:07:40 89° WNW 21:14:04 10° N
SJ-11-01 4.3 21:06:19 33° S 21:08:27 84° WSW 21:13:12 10° NNW
YAOGAN 6 3.5 21:10:52 38° NNE 21:10:52 38° NNE 21:13:29 10° N
Tsikada Rocket 4.2 21:10:51 10° N 21:16:49 47° ENE 21:17:28 45° E
Meteor 1-29 4.3 21:15:48 10° N 21:19:05 41° WNW 21:22:08 12° SW
Cosmos 1743 Rocket 3.5 21:16:09 10° N 21:20:36 86° W 21:21:02 73° S
Cosmos 1500 Rocket 3.7 21:18:02 10° N 21:21:47 61° NNE 21:21:47 61° NNE
Cosmos 1356 Rocket 4.0 21:21:01 10° N 21:24:09 48° NNE 21:24:09 48° NNE
COSMOS 2487 4.5 21:23:19 10° NW 21:26:18 25° W 21:27:15 22° SW
Cosmos 1802 Rocket 4.0 21:22:49 10° SSW 21:28:57 78° W 21:35:09 10° N
BREEZE-M DEB (TANK) 4.5 21:29:09 10° W 21:32:51 57° N 21:45:56 10° ENE
Cosmos 2251 Rocket 3.4 21:28:44 10° NNW 21:34:05 78° ENE 21:34:11 78° E
MetOp-B 4.1 21:44:56 74° NNE 21:44:56 74° NNE 21:49:57 10° N
Cosmos 1833 Rocket 4.1 21:39:50 10° NW 21:44:49 33° WSW 21:47:24 23° SSW
NOAA 11 4.1 21:49:03 77° NNE 21:49:03 77° NNE 21:54:14 10° NNW
Cosmos 1816 Rocket 4.4 21:44:36 10° N 21:50:34 71° ENE 21:50:34 71° ENE
CZ-3B DEB 3.9 21:51:37 10° WNW 21:57:22 23° NNW 21:59:39 16° NNE
USA 245 4.4 22:01:58 71° N 22:01:58 71° N 22:07:32 10° NNW
Cosmos 2151 4.5 21:57:15 10° NNW 21:59:52 34° NNW 21:59:52 34° NNW
USA 215 3.4 21:55:35 10° NE 22:02:06 72° NW 22:08:35 10° WSW
ATLAS 5 CENTAUR R/B 3.3 21:58:31 10° WSW 22:02:54 35° NW 22:07:41 10° NNE
Cosmos 2233 Rocket 4.4 22:07:53 51° NNE 22:07:53 51° NNE 22:12:26 10° N
MOS 1-B Rocket 4.4 22:08:04 70° E 22:08:20 71° ENE 22:15:19 10° N
BREEZE-M DEB (TANK) 4.1 22:06:47 10° WSW 22:11:30 82° NNW 22:32:04 10° ENE
Lacrosse 5 4.4 22:18:56 10° NW 22:22:18 17° NNW 22:24:38 13° NNE
SPOT 5 4.0 22:24:16 46° NW 22:24:16 46° NW 22:28:21 10° NNW
H-2A R/B 3.4 22:33:28 36° NNW 22:33:28 36° NNW 22:36:33 10° NNW
ARGOS 4.2 22:33:04 41° NW 22:33:04 41° NW 22:36:50 10° NNW
USA 267 3.5 22:35:30 65° NNW 22:35:30 65° NNW 22:41:06 10° NW
Terra 4.1 22:43:38 19° N 22:43:38 19° N 22:45:01 10° N
Cosmos 2369 Rocket 4.3 23:16:36 21° N 23:16:36 21° N 23:18:38 10° N
